SWA381 KMSP-KSTL

Flight info

Callsign SWA381
Flight time 1h 8m
Altitude 37000
Route RST1 ALO GUZIK LORLE3
Aircraft B738/M-SDE2E3FGHIRWXY/LB1

Departure

Time 2026-05-06 17:37
Airport Minneapolis–Saint Paul International Airport / Wold–Chamberlain Field (KMSP)

Arrival

Time 2026-05-06 18:45
Airport St. Louis Lambert International Airport (KSTL)
Time Latitude Longitude Altitude Speed Heading
2026-05-06 16:53 44.87553 -93.22771 822 ft 0 kts 135°
2026-05-06 17:27 44.87559 -93.22779 824 ft 4 kts 135°
2026-05-06 17:28 44.87578 -93.22806 824 ft 4 kts 135°
2026-05-06 17:28 44.87595 -93.22830 818 ft 3 kts 135°
2026-05-06 17:28 44.87609 -93.22857 824 ft 4 kts 94°
2026-05-06 17:28 44.87602 -93.22890 824 ft 4 kts 51°
2026-05-06 17:29 44.87584 -93.22918 822 ft 4 kts 42°
2026-05-06 17:29 44.87575 -93.22929 819 ft 1 kts 45°
2026-05-06 17:31 44.87581 -93.22921 823 ft 3 kts 44°
2026-05-06 17:31 44.87611 -93.22879 821 ft 10 kts 45°
2026-05-06 17:32 44.87679 -93.22785 823 ft 15 kts 45°
2026-05-06 17:32 44.87750 -93.22685 822 ft 14 kts 45°
2026-05-06 17:32 44.87838 -93.22561 823 ft 21 kts 45°
2026-05-06 17:32 44.87942 -93.22415 824 ft 21 kts 48°
2026-05-06 17:33 44.88007 -93.22316 821 ft 21 kts 47°
2026-05-06 17:33 44.88088 -93.22188 825 ft 15 kts 65°
2026-05-06 17:33 44.88064 -93.22059 824 ft 14 kts 122°
2026-05-06 17:33 44.88013 -93.21946 820 ft 13 kts 121°
2026-05-06 17:34 44.87959 -93.21820 824 ft 21 kts 122°
2026-05-06 17:34 44.87863 -93.21596 823 ft 29 kts 122°
2026-05-06 17:34 44.87760 -93.21363 822 ft 27 kts 121°
2026-05-06 17:34 44.87665 -93.21143 824 ft 25 kts 122°
2026-05-06 17:35 44.87578 -93.20936 824 ft 24 kts 121°
2026-05-06 17:35 44.87491 -93.20746 822 ft 23 kts 128°
2026-05-06 17:35 44.87373 -93.20606 823 ft 22 kts 133°
2026-05-06 17:36 44.87361 -93.20314 824 ft 17 kts 32°
2026-05-06 17:36 44.87453 -93.20358 823 ft 16 kts 305°
2026-05-06 17:36 44.87605 -93.20705 822 ft 78 kts 302°
2026-05-06 17:36 44.88014 -93.21645 824 ft 145 kts 301°
2026-05-06 17:37 44.88592 -93.22974 1365 ft 160 kts 302°
2026-05-06 17:37 44.89170 -93.24291 2459 ft 156 kts 301°
2026-05-06 17:37 44.89712 -93.25772 2657 ft 186 kts 284°
2026-05-06 17:37 44.89602 -93.27627 2959 ft 204 kts 249°
2026-05-06 17:38 44.88723 -93.29251 3298 ft 221 kts 222°
2026-05-06 17:38 44.87442 -93.30564 3694 ft 231 kts 220°
2026-05-06 17:38 44.86106 -93.31871 4254 ft 235 kts 212°
2026-05-06 17:38 44.84499 -93.32294 4819 ft 249 kts 174°
2026-05-06 17:39 44.82881 -93.31377 5429 ft 253 kts 155°
2026-05-06 17:39 44.81294 -93.30222 5916 ft 260 kts 156°
2026-05-06 17:39 44.79664 -93.29065 6483 ft 267 kts 156°
2026-05-06 17:39 44.77942 -93.27880 6962 ft 280 kts 156°
2026-05-06 17:40 44.76162 -93.26682 7655 ft 286 kts 157°
2026-05-06 17:40 44.74347 -93.25482 8400 ft 290 kts 157°
2026-05-06 17:40 44.72494 -93.24270 9163 ft 295 kts 157°
2026-05-06 17:40 44.70614 -93.23050 9973 ft 299 kts 157°
2026-05-06 17:41 44.68725 -93.21829 10495 ft 312 kts 157°
2026-05-06 17:41 44.66673 -93.20511 10685 ft 336 kts 157°
2026-05-06 17:41 44.64486 -93.19107 11073 ft 351 kts 157°
2026-05-06 17:41 44.62246 -93.17651 11751 ft 357 kts 156°
2026-05-06 17:42 44.60003 -93.16103 12511 ft 361 kts 155°
2026-05-06 17:42 44.57745 -93.14508 13297 ft 366 kts 155°
2026-05-06 17:42 44.55455 -93.12886 14051 ft 370 kts 156°
2026-05-06 17:42 44.53139 -93.11254 14771 ft 375 kts 156°
2026-05-06 17:43 44.50794 -93.09610 15517 ft 379 kts 156°
2026-05-06 17:43 44.48424 -93.07953 16254 ft 383 kts 156°
2026-05-06 17:43 44.46022 -93.06279 16984 ft 387 kts 156°
2026-05-06 17:43 44.43599 -93.04591 17762 ft 390 kts 157°
2026-05-06 17:44 44.41164 -93.02897 18528 ft 393 kts 157°
2026-05-06 17:44 44.38690 -93.01181 19109 ft 399 kts 157°
2026-05-06 17:44 44.36198 -92.99453 19693 ft 404 kts 158°
2026-05-06 17:44 44.33668 -92.97697 20320 ft 407 kts 158°
2026-05-06 17:45 44.31121 -92.95930 20953 ft 411 kts 158°
2026-05-06 17:45 44.28544 -92.94145 21552 ft 415 kts 158°
2026-05-06 17:45 44.25943 -92.92346 22136 ft 419 kts 158°
2026-05-06 17:45 44.23315 -92.90530 22718 ft 423 kts 158°
2026-05-06 17:46 44.20667 -92.88702 23278 ft 427 kts 158°
2026-05-06 17:46 44.17997 -92.86859 23779 ft 430 kts 158°
2026-05-06 17:46 44.15297 -92.84997 24266 ft 433 kts 158°
2026-05-06 17:46 44.12626 -92.83157 24720 ft 436 kts 159°
2026-05-06 17:47 44.09888 -92.81276 25165 ft 439 kts 159°
2026-05-06 17:47 44.07136 -92.79389 25625 ft 442 kts 159°
2026-05-06 17:47 44.04357 -92.77486 26056 ft 446 kts 159°
2026-05-06 17:47 44.01565 -92.75574 26487 ft 449 kts 159°
2026-05-06 17:48 43.98754 -92.73650 26870 ft 452 kts 160°
2026-05-06 17:48 43.95928 -92.71717 27304 ft 454 kts 160°
2026-05-06 17:48 43.93085 -92.69775 27709 ft 457 kts 160°
2026-05-06 17:48 43.90223 -92.67822 28085 ft 460 kts 161°
2026-05-06 17:49 43.87346 -92.65855 28523 ft 462 kts 161°
2026-05-06 17:49 43.84490 -92.63909 28943 ft 464 kts 161°
2026-05-06 17:49 43.81543 -92.61910 29282 ft 467 kts 162°
2026-05-06 17:49 43.78559 -92.60167 29575 ft 462 kts 171°
2026-05-06 17:50 43.75519 -92.59096 29961 ft 452 kts 180°
2026-05-06 17:50 43.72415 -92.58576 30302 ft 450 kts 182°
2026-05-06 17:50 43.69296 -92.58112 30560 ft 452 kts 182°
2026-05-06 17:50 43.66146 -92.57644 30843 ft 454 kts 182°
2026-05-06 17:51 43.63004 -92.57166 31202 ft 454 kts 182°
2026-05-06 17:51 43.59863 -92.56676 31552 ft 453 kts 182°
2026-05-06 17:51 43.56738 -92.56168 32060 ft 450 kts 182°
2026-05-06 17:51 43.53635 -92.55655 32477 ft 449 kts 182°
2026-05-06 17:52 43.50531 -92.55144 32755 ft 450 kts 182°
2026-05-06 17:52 43.47416 -92.54637 33008 ft 452 kts 182°
2026-05-06 17:52 43.44293 -92.54129 33377 ft 451 kts 182°
2026-05-06 17:52 43.41170 -92.53620 33748 ft 451 kts 182°
2026-05-06 17:53 43.38097 -92.53121 34094 ft 449 kts 183°
2026-05-06 17:53 43.34999 -92.52616 34483 ft 447 kts 183°
2026-05-06 17:53 43.31912 -92.52111 34743 ft 447 kts 182°
2026-05-06 17:53 43.28817 -92.51608 34941 ft 449 kts 182°
2026-05-06 17:54 43.25712 -92.51108 35184 ft 449 kts 182°
2026-05-06 17:54 43.22606 -92.50607 35474 ft 449 kts 182°
2026-05-06 17:54 43.19512 -92.50107 35731 ft 448 kts 183°
2026-05-06 17:54 43.16418 -92.49606 36047 ft 446 kts 182°
2026-05-06 17:55 43.13340 -92.49109 36314 ft 446 kts 182°
2026-05-06 17:55 43.10242 -92.48611 36524 ft 447 kts 182°
2026-05-06 17:55 43.07146 -92.48114 36733 ft 448 kts 182°
2026-05-06 17:55 43.04050 -92.47616 36996 ft 448 kts 182°
2026-05-06 17:56 43.00986 -92.47124 37100 ft 450 kts 182°
2026-05-06 17:56 42.97858 -92.46624 37068 ft 452 kts 182°
2026-05-06 17:56 42.91619 -92.45621 37091 ft 449 kts 182°
2026-05-06 17:57 42.85469 -92.44632 37106 ft 442 kts 183°
2026-05-06 17:57 42.79366 -92.43660 37117 ft 442 kts 183°
2026-05-06 17:58 42.73200 -92.42684 37119 ft 448 kts 182°
2026-05-06 17:58 42.67019 -92.41700 37116 ft 451 kts 182°
2026-05-06 17:59 42.60772 -92.40705 37111 ft 452 kts 182°
2026-05-06 17:59 42.54516 -92.39685 37101 ft 453 kts 181°
2026-05-06 18:00 42.48271 -92.38303 37105 ft 454 kts 179°
2026-05-06 18:00 42.42057 -92.36800 37109 ft 452 kts 179°
2026-05-06 18:01 42.35880 -92.35331 37082 ft 449 kts 180°
2026-05-06 18:01 42.29735 -92.33902 37104 ft 446 kts 180°
2026-05-06 18:02 42.23664 -92.32508 37107 ft 444 kts 180°
2026-05-06 18:02 42.17573 -92.31118 37110 ft 443 kts 180°
2026-05-06 18:03 42.11508 -92.29730 37099 ft 441 kts 181°
2026-05-06 18:03 42.05447 -92.28343 37098 ft 441 kts 181°
2026-05-06 18:04 41.99390 -92.26969 37105 ft 441 kts 181°
2026-05-06 18:04 41.93338 -92.25597 37100 ft 441 kts 181°
2026-05-06 18:05 41.87290 -92.24224 37111 ft 441 kts 181°
2026-05-06 18:05 41.81234 -92.22853 37101 ft 442 kts 181°
2026-05-06 18:06 41.75214 -92.21492 37065 ft 442 kts 182°
2026-05-06 18:06 41.69145 -92.20123 37100 ft 442 kts 182°
2026-05-06 18:07 41.63079 -92.18756 37116 ft 442 kts 182°
2026-05-06 18:07 41.57007 -92.17390 37113 ft 442 kts 182°
2026-05-06 18:08 41.50941 -92.16028 37100 ft 441 kts 183°
2026-05-06 18:08 41.44925 -92.14680 37109 ft 441 kts 183°
2026-05-06 18:09 41.38879 -92.13329 37112 ft 440 kts 183°
2026-05-06 18:09 41.32833 -92.11980 37087 ft 440 kts 183°
2026-05-06 18:10 41.26791 -92.10634 37099 ft 439 kts 184°
2026-05-06 18:10 41.20770 -92.09295 37119 ft 438 kts 184°
2026-05-06 18:11 41.15777 -92.08188 37114 ft 437 kts 184°
2026-05-06 18:11 41.08756 -92.06632 37089 ft 436 kts 184°
2026-05-06 18:12 41.02792 -92.05312 37109 ft 434 kts 185°
2026-05-06 18:12 40.96879 -92.04009 37127 ft 433 kts 185°
2026-05-06 18:13 40.90934 -92.02700 37126 ft 432 kts 185°
2026-05-06 18:13 40.85000 -92.01394 37120 ft 431 kts 185°
2026-05-06 18:14 40.82036 -92.00582 37120 ft 443 kts 178°
2026-05-06 18:14 40.79092 -91.99188 37126 ft 459 kts 170°
2026-05-06 18:14 40.76227 -91.97164 37128 ft 472 kts 163°
2026-05-06 18:14 40.73408 -91.94924 37123 ft 474 kts 162°
2026-05-06 18:15 40.70364 -91.92450 37122 ft 474 kts 162°
2026-05-06 18:15 40.64775 -91.87922 37119 ft 474 kts 163°
2026-05-06 18:16 40.59136 -91.83432 37112 ft 473 kts 163°
2026-05-06 18:16 40.56312 -91.81205 36961 ft 475 kts 163°
2026-05-06 18:16 40.53460 -91.78969 36470 ft 477 kts 164°
2026-05-06 18:17 40.50616 -91.76733 35915 ft 475 kts 165°
2026-05-06 18:17 40.47769 -91.74499 35332 ft 475 kts 165°
2026-05-06 18:17 40.44970 -91.72303 34788 ft 473 kts 166°
2026-05-06 18:17 40.42161 -91.70095 34386 ft 469 kts 167°
2026-05-06 18:18 40.39373 -91.67907 33915 ft 465 kts 167°
2026-05-06 18:18 40.36597 -91.65733 33449 ft 461 kts 167°
2026-05-06 18:18 40.34783 -91.64314 33159 ft 457 kts 167°
2026-05-06 18:18 40.32061 -91.62187 32730 ft 453 kts 167°
2026-05-06 18:19 40.29367 -91.60085 32317 ft 448 kts 167°
2026-05-06 18:19 40.26697 -91.58006 31905 ft 444 kts 167°
2026-05-06 18:19 40.24051 -91.55947 31449 ft 440 kts 168°
2026-05-06 18:19 40.21437 -91.53915 31079 ft 435 kts 168°
2026-05-06 18:20 40.18841 -91.51899 30663 ft 431 kts 168°
2026-05-06 18:20 40.16272 -91.49910 30295 ft 427 kts 168°
2026-05-06 18:20 40.13732 -91.47942 29857 ft 423 kts 168°
2026-05-06 18:20 40.11206 -91.45985 29410 ft 419 kts 168°
2026-05-06 18:21 40.08715 -91.44055 29005 ft 414 kts 167°
2026-05-06 18:21 40.06255 -91.42151 28597 ft 410 kts 167°
2026-05-06 18:21 40.03814 -91.40264 28211 ft 405 kts 167°
2026-05-06 18:21 40.01426 -91.38422 27763 ft 402 kts 167°
2026-05-06 18:22 39.99036 -91.36579 27421 ft 397 kts 167°
2026-05-06 18:22 39.96655 -91.34748 27023 ft 395 kts 167°
2026-05-06 18:22 39.94290 -91.32929 26644 ft 393 kts 167°
2026-05-06 18:22 39.91927 -91.31118 26278 ft 395 kts 167°
2026-05-06 18:23 39.89555 -91.29302 25883 ft 396 kts 166°
2026-05-06 18:23 39.87185 -91.27484 25492 ft 394 kts 166°
2026-05-06 18:23 39.84834 -91.25678 25104 ft 391 kts 166°
2026-05-06 18:23 39.82493 -91.23879 24721 ft 389 kts 165°
2026-05-06 18:24 39.80163 -91.22092 24337 ft 387 kts 165°
2026-05-06 18:24 39.77845 -91.20315 24064 ft 385 kts 166°
2026-05-06 18:24 39.75547 -91.18556 23695 ft 382 kts 165°
2026-05-06 18:24 39.73256 -91.16804 23272 ft 380 kts 165°
2026-05-06 18:25 39.70987 -91.15074 22880 ft 377 kts 165°
2026-05-06 18:25 39.68734 -91.13353 22486 ft 374 kts 165°
2026-05-06 18:25 39.66527 -91.11668 22112 ft 371 kts 165°
2026-05-06 18:25 39.64282 -91.09955 21742 ft 368 kts 164°
2026-05-06 18:26 39.62104 -91.08295 21377 ft 366 kts 164°
2026-05-06 18:26 39.59912 -91.06630 21004 ft 365 kts 164°
2026-05-06 18:26 39.57714 -91.04964 20630 ft 366 kts 163°
2026-05-06 18:26 39.55515 -91.03295 20215 ft 367 kts 163°
2026-05-06 18:27 39.53313 -91.01623 19841 ft 366 kts 163°
2026-05-06 18:27 39.51126 -90.99960 19467 ft 364 kts 163°
2026-05-06 18:27 39.48942 -90.98302 19081 ft 362 kts 162°
2026-05-06 18:27 39.46774 -90.96658 18690 ft 362 kts 162°
2026-05-06 18:28 39.44602 -90.95014 18277 ft 361 kts 162°
2026-05-06 18:28 39.42435 -90.93374 17792 ft 359 kts 161°
2026-05-06 18:28 39.40302 -90.91702 17472 ft 357 kts 159°
2026-05-06 18:28 39.38198 -90.89990 17106 ft 355 kts 158°
2026-05-06 18:29 39.36115 -90.88291 16745 ft 353 kts 158°
2026-05-06 18:29 39.34039 -90.86607 16356 ft 351 kts 159°
2026-05-06 18:29 39.31975 -90.84941 16015 ft 348 kts 158°
2026-05-06 18:29 39.29960 -90.83308 15681 ft 346 kts 157°
2026-05-06 18:30 39.27957 -90.81619 15395 ft 344 kts 156°
2026-05-06 18:30 39.25970 -90.79916 15049 ft 342 kts 155°
2026-05-06 18:30 39.23984 -90.78214 14705 ft 340 kts 155°
2026-05-06 18:30 39.22011 -90.76527 14361 ft 339 kts 155°
2026-05-06 18:31 39.20045 -90.74852 13999 ft 338 kts 155°
2026-05-06 18:31 39.18083 -90.73185 13614 ft 337 kts 155°
2026-05-06 18:31 39.16129 -90.71527 13238 ft 336 kts 154°
2026-05-06 18:31 39.14186 -90.69867 12897 ft 333 kts 153°
2026-05-06 18:32 39.12271 -90.68199 12560 ft 331 kts 153°
2026-05-06 18:32 39.10367 -90.66533 12195 ft 329 kts 153°
2026-05-06 18:32 39.08501 -90.64903 11856 ft 328 kts 152°
2026-05-06 18:32 39.06617 -90.63260 11519 ft 326 kts 152°
2026-05-06 18:33 39.04744 -90.61630 11179 ft 324 kts 152°
2026-05-06 18:33 39.02875 -90.60006 10842 ft 323 kts 151°
2026-05-06 18:33 39.01020 -90.58388 10506 ft 322 kts 150°
2026-05-06 18:33 38.99183 -90.56767 10311 ft 316 kts 150°
2026-05-06 18:34 38.97398 -90.55187 10159 ft 308 kts 149°
2026-05-06 18:34 38.95646 -90.53642 10026 ft 301 kts 149°
2026-05-06 18:34 38.93927 -90.52127 9733 ft 299 kts 149°
2026-05-06 18:34 38.92228 -90.50594 9433 ft 299 kts 143°
2026-05-06 18:35 38.90911 -90.48533 9184 ft 299 kts 123°
2026-05-06 18:35 38.89830 -90.46256 8894 ft 298 kts 123°
2026-05-06 18:35 38.88750 -90.43995 8597 ft 296 kts 124°
2026-05-06 18:35 38.87664 -90.41765 8314 ft 294 kts 124°
2026-05-06 18:36 38.86579 -90.39560 8159 ft 288 kts 124°
2026-05-06 18:36 38.85536 -90.37446 8026 ft 281 kts 124°
2026-05-06 18:36 38.84500 -90.35339 7740 ft 280 kts 123°
2026-05-06 18:36 38.83461 -90.33207 7394 ft 283 kts 123°
2026-05-06 18:37 38.82417 -90.31060 7034 ft 286 kts 122°
2026-05-06 18:37 38.81355 -90.28901 6695 ft 286 kts 123°
2026-05-06 18:37 38.80278 -90.26738 6344 ft 287 kts 122°
2026-05-06 18:37 38.79201 -90.24571 5977 ft 289 kts 122°
2026-05-06 18:38 38.78114 -90.22394 5619 ft 289 kts 122°
2026-05-06 18:38 38.77027 -90.20221 5278 ft 289 kts 122°
2026-05-06 18:38 38.75943 -90.18049 4938 ft 287 kts 121°
2026-05-06 18:38 38.74910 -90.15914 4634 ft 277 kts 120°
2026-05-06 18:39 38.73950 -90.13868 4430 ft 265 kts 119°
2026-05-06 18:39 38.73040 -90.11882 4292 ft 252 kts 119°
2026-05-06 18:39 38.72108 -90.10006 4190 ft 243 kts 131°
2026-05-06 18:40 38.69109 -90.08697 3735 ft 237 kts 196°
2026-05-06 18:40 38.67695 -90.09676 3495 ft 230 kts 229°
2026-05-06 18:40 38.66928 -90.11381 3306 ft 218 kts 255°
2026-05-06 18:40 38.66494 -90.13204 3080 ft 209 kts 258°
2026-05-06 18:41 38.66090 -90.14994 3038 ft 209 kts 256°
2026-05-06 18:41 38.65768 -90.16809 2993 ft 207 kts 271°
2026-05-06 18:41 38.66180 -90.18452 2988 ft 187 kts 310°
2026-05-06 18:41 38.66913 -90.19760 2996 ft 178 kts 301°
2026-05-06 18:42 38.67535 -90.21125 2947 ft 177 kts 306°
2026-05-06 18:42 38.68198 -90.22431 2760 ft 172 kts 304°
2026-05-06 18:42 38.68829 -90.23697 2535 ft 168 kts 303°
2026-05-06 18:42 38.69427 -90.24922 2312 ft 157 kts 304°
2026-05-06 18:43 38.69976 -90.26044 2135 ft 140 kts 304°
2026-05-06 18:43 38.70472 -90.27051 1934 ft 133 kts 304°
2026-05-06 18:43 38.70951 -90.28065 1751 ft 134 kts 304°
2026-05-06 18:43 38.71444 -90.29075 1576 ft 132 kts 305°
2026-05-06 18:44 38.71942 -90.30067 1437 ft 134 kts 306°
2026-05-06 18:44 38.72442 -90.31068 1218 ft 131 kts 300°
2026-05-06 18:44 38.72921 -90.32056 1060 ft 132 kts 303°
2026-05-06 18:44 38.73411 -90.33044 832 ft 129 kts 303°
2026-05-06 18:45 38.73881 -90.34001 636 ft 124 kts 305°
2026-05-06 18:45 38.74299 -90.34850 587 ft 101 kts 302°
2026-05-06 18:45 38.74596 -90.35446 581 ft 60 kts 302°
2026-05-06 18:45 38.74701 -90.35689 580 ft 34 kts 289°
2026-05-06 18:46 38.74749 -90.35922 575 ft 13 kts 288°
2026-05-06 18:46 38.74736 -90.36013 570 ft 11 kts 230°
2026-05-06 18:46 38.74673 -90.35992 569 ft 11 kts 124°
2026-05-06 18:46 38.74632 -90.35915 573 ft 10 kts 123°
2026-05-06 18:47 38.74594 -90.35840 572 ft 10 kts 123°
2026-05-06 18:47 38.74558 -90.35765 577 ft 10 kts 122°
2026-05-06 18:47 38.74523 -90.35693 576 ft 9 kts 122°
2026-05-06 18:47 38.74477 -90.35637 576 ft 9 kts 165°
2026-05-06 18:48 38.74412 -90.35636 577 ft 9 kts 179°
2026-05-06 18:48 38.74350 -90.35644 578 ft 9 kts 205°
2026-05-06 18:48 38.74299 -90.35686 578 ft 9 kts 210°
2026-05-06 18:48 38.74244 -90.35730 578 ft 10 kts 211°
2026-05-06 18:49 38.74188 -90.35758 575 ft 7 kts 161°
2026-05-06 18:49 38.74145 -90.35671 577 ft 20 kts 122°
2026-05-06 18:49 38.74055 -90.35608 577 ft 14 kts 180°
2026-05-06 18:49 38.73980 -90.35614 574 ft 7 kts 206°
2026-05-06 18:50 38.73943 -90.35645 574 ft 5 kts 213°
2026-05-06 18:50 38.73919 -90.35650 574 ft 3 kts 152°
2026-05-06 18:50 38.73904 -90.35623 574 ft 5 kts 123°
2026-05-06 18:50 38.73865 -90.35546 575 ft 13 kts 121°
2026-05-06 18:51 38.73822 -90.35456 577 ft 10 kts 122°
2026-05-06 18:51 38.73769 -90.35452 581 ft 8 kts 215°
2026-05-06 18:51 38.73754 -90.35466 577 ft 0 kts 216°